RH
61 59 54 54 53 50 57 55 61 77 62 48 43 40 40 39 34 37 38 35 38 42 43 40 32 34 41 42 36 32 25 24 40 74 83 89 98 98 100 100 100 100 100 100
79 59 58 60 76 84 81 71 80 82 87 84 66 45 36 39 40 37 38 38 40 45 48 49 43 34 38 50 43 37 33 27 25 40 75 85 87 98 100 100 100 100 100 100
88 64 67 86 90 86 74 55 61 59 54 62 51 52 51 51 49 44 40 50 50 49 54 54 50 42 33 43 48 42 40 33 27 30 50 83 90 84 100 100 100 100 100 99
80 62 89 73 70 72 66 51 71 70 71 68 67 67 64 53 54 54 63 62 60 60 60 59 55 44 32 42 52 43 42 42 32 28 35 68 94 96 99 99 100 100 99 96
83 83 51 78 79 72 74 76 65 66 65 64 63 62 49 53 57 64 61 58 55 54 50 50 46 36 34 54 51 44 41 50 43 34 42 47 88 97 99 100 100 100 100 100
84 95 86 88 64 51 61 71 64 64 64 65 66 82 58 57 65 65 64 63 56 44 48 42 36 35 44 66 53 44 43 57 51 40 44 50 90 94 100 98 99 100 100 100
85 92 79 73 53 44 64 71 67 72 74 80 82 77 76 79 79 77 75 72 66 63 61 51 38 46 68 72 47 44 53 64 57 46 46 51 87 100 98 100 99 100 100 100
81 85 90 54 63 91 74 88 89 93 94 92 90 90 90 88 86 84 83 81 77 76 69 60 52 72 88 58 39 42 68 69 63 52 50 53 70 100 100 100 99 99 98 100
95 76 48 60 61 76 86 97 95 97 96 98 97 95 94 94 96 95 92 88 84 84 80 69 71 84 75 33 46 43 80 76 66 54 53 61 71 97 99 98 100 100 99 100
83 50 54 61 61 69 96 99 97 97 97 98 98 98 98 100 100 100 100 93 91 93 87 77 74 65 55 50 51 70 87 78 66 56 56 65 80 96 99 100 98 98 98 98
79 59 72 55 71 98 97 97 98 98 100 97 97 98 100 98 100 98 98 99 98 99 94 86 80 70 64 62 72 82 90 76 65 59 64 71 81 99 98 100 100 100 100 100
93 75 96 89 93 97 97 100 100 100 98 91 100 97 98 97 100 98 95 97 98 96 90 88 82 75 68 70 77 83 85 77 68 60 75 74 84 99 99 99 100 99 99 100
95 98 100 81 89 96 100 94 95 97 96 96 92 99 97 96 96 98 96 96 96 95 92 89 85 76 69 70 72 80 83 79 68 64 92 83 89 100 99 98 98 100 100 100
97 95 85 86 100 92 96 97 100 98 98 96 97 93 97 97 96 97 96 97 96 91 86 81 77 71 62 64 69 72 98 99 79 94 99 100 100 100 100 98 98 98 99 100
94 93 97 96 91 94 94 100 100 100 97 93 93 98 97 95 95 97 97 97 97 97 94 90 84 74 81 91 91 91 100 100 98 99 100 100 99 100 100 99 98 97 98 99
94 82 85 89 92 98 100 95 100 94 95 98 98 95 98 97 96 96 96 96 96 96 96 97 93 94 98 99 100 100 100 99 87 96 98 100 99 100 100 99 97 97 97 98
95 89 92 93 100 96 97 97 98 99 100 98 97 96 96 93 87 94 94 96 96 96 96 97 100 100 100 100 100 100 100 100 100 100 100 100 100 98 98 98 97 98 98 98
99 97 97 97 97 96 94 97 96 97 97 98 97 97 95 96 97 97 96 98 92 94 98 99 100 100 100 100 100 100 100 100 100 98 100 100 100 99 97 97 97 98 98 98
97 96 96 97 97 97 96 96 96 97 96 96 96 95 97 97 96 96 95 99 96 97 96 100 100 98 96 100 100 100 100 100 100 99 100 98 97 97 97 97 98 98 98 97
95 95 96 96 97 96 95 96 96 97 96 96 96 93 93 95 95 95 95 98 98 98 97 97 95 94 97 97 96 99 99 99 99 98 98 97 97 97 97 97 97 97 96 97
97 96 97 96 96 96 96 96 96 96 96 96 96 96 96 97 96 94 98 99 97 97 98 96 96 96 96 96 96 96 97 97 97 96 96 96 97 97 97 97 97 96 96 96
99 98 98 96 96 93 95 96 95 96 95 96 96 95 92 92 92 90 98 97 97 97 97 97 97 97 96 96 96 96 96 96 96 97 97 97 97 97 96 96 96 96 96 95
98 96 95 93 95 95 95 93 95 100 96 98 96 95 95 97 97 89 90 96 95 97 96 96 97 96 96 95 96 96 96 96 96 96 96 96 96 96 96 96 95 96 95 95
97 94 94 92 93 86 85 91 96 100 95 97 100 98 92 89 98 96 96 96 97 94 96 96 96 96 95 95 95 95 96 95 95 95 95 96 96 96 96 96 95 96 95 95
98 95 96 92 93 93 93 92 88 90 88 82 88 94 99 98 99 98 89 92 96 94 92 97 96 93 94 95 95 95 94 94 95 93 92 91 90 89 84 72 58 56 56 54
92 98 98 98 100 98 95 93 96 91 92 86 87 93 95 96 96 88 89 91 93 93 93 92 98 93 93 93 91 93 92 95 92 94 93 91 89 86 80 77 75 72 69 68
93 91 92 88 94 98 95 92 92 91 94 95 88 92 95 93 91 90 93 92 93 98 99 99 98 99 98 97 96 97 96 96 98 95 92 90 88 87 85 84 83 81 78 77
Wind_Speed
8 9 11 12 15 12 7 7 3 8 8 5 4 5 7 13 20 16 15 21 24 24 26 30 32 33 31 30 31 29 27 26 25 21 17 17 13 9 22 29 19 26 33 40
8 12 7 5 7 7 8 8 7 13 3 6 9 12 14 16 20 22 17 23 26 25 25 31 31 34 34 31 32 30 28 26 25 24 20 18 16 12 10 17 17 21 25 34
3 6 5 4 7 9 9 8 7 10 11 3 7 12 18 23 26 24 18 24 28 29 27 32 32 34 37 32 31 31 28 26 25 25 23 19 16 14 12 11 14 19 22 28
3 7 3 4 10 8 13 9 12 13 12 13 15 21 26 25 19 17 21 24 27 28 34 35 35 36 38 30 29 30 29 26 25 25 24 20 17 14 12 9 12 17 10 22
3 2 6 5 10 10 10 7 12 13 12 19 26 28 24 10 20 27 34 40 39 40 42 40 40 39 35 30 29 29 29 25 24 23 24 23 16 14 12 11 10 15 16 16
2 2 2 5 12 21 9 8 20 22 20 23 26 13 15 34 37 41 39 39 41 44 41 40 40 37 30 28 30 29 28 22 22 22 23 24 17 14 12 11 10 12 14 14
4 2 3 9 17 22 4 8 30 30 31 29 14 21 41 43 43 38 40 38 40 38 38 39 36 29 27 28 30 27 25 20 20 21 21 22 19 15 10 11 9 10 10 12
3 3 3 24 10 7 13 24 29 30 32 33 35 39 42 43 43 43 42 42 40 38 37 34 30 26 27 30 29 26 22 19 19 20 19 20 19 18 11 9 10 6 8 11
2 4 17 19 21 11 27 29 32 35 36 37 39 40 43 45 44 45 45 44 41 37 37 34 28 27 32 31 25 25 20 17 17 19 17 17 16 17 14 9 11 8 7 10
7 1 16 33 15 32 33 35 37 38 39 38 38 40 42 42 42 42 42 43 40 36 36 35 29 30 25 24 23 18 18 16 16 18 15 15 13 13 15 10 9 10 10 12
6 11 29 13 32 35 39 37 37 38 37 37 38 40 39 41 43 44 42 38 36 34 34 33 28 25 21 19 15 16 16 15 15 15 14 15 12 11 14 12 11 11 11 13
4 25 17 29 37 33 35 38 38 40 39 38 35 37 40 42 42 37 31 31 31 29 29 28 25 22 19 13 13 16 18 14 13 14 12 14 11 10 12 12 11 13 13 11
13 26 28 29 25 32 36 39 38 37 36 37 38 36 37 38 38 33 27 22 20 23 24 23 22 22 16 13 14 17 18 15 14 14 13 15 11 11 11 9 10 10 9 10
12 26 23 22 33 34 34 35 35 34 32 34 34 33 35 33 32 31 33 23 17 16 18 19 19 20 16 15 16 18 14 11 12 11 13 15 12 10 10 9 13 11 8 9
27 25 21 26 29 31 32 33 35 34 37 36 32 33 34 32 33 31 30 24 19 14 17 18 19 19 15 15 16 15 14 14 11 13 14 15 11 10 11 11 13 13 12 10
30 28 28 28 30 31 32 36 35 38 37 36 33 31 32 29 29 29 29 27 24 21 15 12 11 12 12 13 13 15 16 16 16 16 15 13 12 11 12 13 14 15 17 18
30 33 33 31 31 32 31 32 30 32 34 33 30 29 30 29 29 32 33 31 26 25 20 16 13 13 13 16 19 20 19 18 15 15 15 12 13 14 15 16 16 19 20 22
20 20 21 23 26 27 29 30 30 31 32 30 28 27 30 32 33 35 34 35 31 30 27 21 18 15 11 10 11 12 13 12 11 12 12 13 15 16 18 19 20 24 25 30
21 22 22 22 21 23 25 27 28 30 30 30 30 29 29 31 33 36 36 39 38 37 32 25 18 15 12 9 4 5 7 8 9 10 10 13 17 19 20 23 29 32 31 28
23 23 23 23 22 23 25 26 28 29 29 29 29 30 32 32 35 38 39 41 38 33 28 25 20 17 14 11 8 4 3 6 9 11 14 18 20 25 29 32 34 29 25 22
24 24 24 24 24 23 24 25 27 28 29 29 30 31 32 33 34 39 42 43 42 37 33 30 25 19 16 11 10 11 12 14 17 20 20 24 28 31 32 31 27 23 22 21
23 24 24 24 24 23 24 25 26 27 29 30 31 32 34 37 36 38 38 38 40 38 40 36 29 22 20 17 20 20 21 22 22 22 24 26 28 29 28 26 23 21 20 19
21 21 22 23 24 23 23 23 25 26 27 30 31 32 33 33 34 38 40 38 38 40 42 41 39 38 38 38 34 32 31 31 32 31 30 30 29 27 25 22 20 17 16 14
19 20 21 22 22 22 25 24 24 25 25 27 28 29 30 31 33 33 33 34 35 37 40 39 41 42 42 42 41 40 38 35 33 31 29 27 25 23 21 18 15 13 11 9
16 19 20 24 25 23 23 23 22 24 25 26 27 27 27 28 30 29 30 32 33 34 36 37 37 37 39 38 38 38 37 35 33 31 29 26 23 21 19 15 12 11 9 7
16 18 19 21 23 22 21 21 21 22 25 26 26 26 26 26 26 26 28 29 31 31 33 34 35 33 34 33 32 32 31 30 27 26 24 22 19 17 16 13 11 9 7 6
16 16 18 19 22 22 20 18 19 20 22 23 23 24 25 25 26 26 26 27 28 30 31 32 33 33 31 31 31 30 29 27 26 25 24 22 19 17 15 12 10 8 7 6
Wind_Direction
284 284 281 281 294 301 268 250 252 331 326 93 18 358 356 345 348 330 324 347 345 342 343 350 351 350 346 344 346 346 348 354 358 352 342 335 322 274 271 254 243 250 228 208
292 277 261 322 30 58 51 35 16 356 73 344 332 329 343 339 322 320 317 336 334 332 330 334 341 345 340 336 340 340 338 342 346 348 345 338 319 304 296 293 251 261 232 215
271 326 303 126 30 28 4 332 320 335 3 35 358 346 331 322 309 302 310 334 329 325 319 324 328 333 336 327 328 334 331 332 335 338 341 337 329 306 293 305 288 261 245 221
310 341 55 158 49 1 342 16 31 12 3 1 349 328 312 311 319 330 329 328 319 314 315 317 316 322 328 321 320 326 328 325 327 329 336 333 331 311 300 288 299 279 208 210
339 318 289 76 17 344 333 328 38 1 353 342 332 325 307 313 313 312 306 304 300 299 303 304 307 314 319 311 314 318 326 319 323 323 327 332 326 324 313 275 280 276 256 230
331 328 287 24 335 332 306 283 2 354 337 332 330 310 295 308 306 302 298 296 299 300 300 299 297 308 306 302 308 314 321 313 316 317 319 327 317 321 311 287 268 277 273 253
314 280 300 12 350 337 321 314 334 330 323 318 309 294 298 301 299 295 293 293 294 293 289 291 296 302 294 294 302 311 314 304 307 310 311 319 313 312 308 291 275 264 265 268
320 302 333 13 4 354 315 318 316 315 312 307 303 301 298 298 296 296 294 294 293 289 290 289 290 290 281 287 298 305 307 298 301 303 306 313 310 304 302 289 276 266 260 254
9 294 324 342 325 328 324 320 318 313 311 307 302 300 298 297 297 294 294 294 294 287 290 289 279 273 280 287 291 303 300 298 298 297 303 309 303 300 301 284 275 275 264 255
339 251 341 326 331 330 327 318 315 314 313 312 306 305 302 301 299 296 293 293 293 287 285 285 280 283 283 284 294 292 298 296 295 294 301 310 298 294 291 279 263 255 256 249
271 282 334 322 323 321 320 320 319 321 319 317 316 313 312 309 307 302 298 293 293 286 284 283 285 284 283 288 284 290 294 290 288 288 293 308 297 290 283 271 255 250 250 248
284 309 306 304 314 321 320 323 327 327 326 332 326 321 326 324 322 319 317 307 293 288 284 283 285 284 284 279 277 288 291 287 279 285 286 301 296 284 282 267 245 242 240 235
295 307 310 311 315 323 328 332 330 329 334 331 338 338 336 336 338 337 327 323 308 294 289 288 287 287 284 273 277 283 288 277 266 280 275 298 295 279 282 263 231 229 227 214
326 331 325 328 324 337 331 335 335 339 340 345 344 347 346 348 351 352 349 338 312 301 292 289 286 283 278 277 278 278 272 282 268 264 267 288 294 277 269 244 214 198 193 194
332 338 320 320 334 339 345 342 341 343 346 349 352 352 354 356 358 1 4 360 350 321 300 294 290 287 288 278 267 264 262 254 248 258 269 280 282 267 253 229 214 192 169 170
336 343 344 346 343 342 347 350 347 349 350 350 355 359 360 3 9 8 12 15 14 9 355 336 314 300 287 276 264 260 267 262 257 262 267 262 267 245 231 215 206 190 174 176
345 342 344 342 344 347 352 351 350 351 352 357 359 5 8 9 15 17 19 17 20 18 12 2 341 312 291 268 259 259 260 263 256 252 252 253 250 226 214 204 193 181 176 177
348 344 346 347 345 347 353 354 359 359 0 3 6 11 17 18 20 18 21 19 21 21 17 10 360 349 333 304 271 261 255 253 242 236 243 241 226 213 201 195 186 177 170 168
357 355 356 357 354 355 359 358 3 5 7 10 14 19 22 24 28 27 26 25 23 19 15 11 5 5 11 13 341 231 232 229 229 226 225 213 208 200 191 181 171 166 164 162
1 2 4 3 5 5 4 4 9 10 14 15 19 25 29 28 31 32 29 27 26 25 23 21 20 26 23 23 32 64 144 185 189 185 187 185 182 172 168 169 163 153 151 152
2 4 7 6 8 10 12 12 15 14 19 23 25 28 30 33 38 36 26 25 25 38 36 39 38 47 60 67 88 111 130 140 147 153 158 159 158 156 155 150 145 144 144 144
2 4 8 9 12 14 19 20 23 21 25 29 33 34 35 36 40 46 42 34 34 43 48 47 51 58 71 82 96 107 115 122 128 134 139 141 140 137 135 135 133 133 135 133
4 7 10 14 15 21 26 26 31 29 31 34 35 40 43 43 39 41 39 36 49 49 54 55 62 69 75 78 82 89 96 101 102 104 107 112 115 116 118 118 118 120 121 123
6 13 14 19 20 25 29 30 38 39 38 41 41 40 42 47 48 49 51 51 49 52 57 54 57 61 65 68 71 73 74 78 83 87 91 94 97 100 102 104 109 111 111 112
9 19 16 23 22 23 28 30 40 45 39 40 42 43 45 46 45 43 46 49 52 54 58 58 58 59 62 62 64 65 65 65 66 68 71 73 76 78 81 84 89 93 96 98
11 23 21 26 23 20 28 30 34 38 36 35 40 41 42 43 44 43 44 49 51 52 53 54 56 56 59 61 63 66 69 69 68 69 70 71 72 74 76 75 74 73 73 70
17 20 21 27 28 24 26 26 31 33 36 30 35 38 39 40 40 41 43 47 51 52 52 53 55 56 58 59 60 61 62 64 64 63 62 60 59 60 60 59 55 50 44 37